Orbital Elements at Epoch 2459200.5 (2020-Dec-17.0) TDB
Reference: JPL 15 (heliocentric ecliptic J2000)
Element | Value | Uncertainty (1-sigma) | Units |
e | .05797340635304708 | 6.7631e-08 | |
a | 2.708481608192113 | 2.6114e-08 | au |
q | 2.551461703320638 | 1.9412e-07 | au |
i | 6.38118816362404 | 6.5931e-06 | deg |
node | 47.38267877587253 | 4.4797e-05 | deg |
peri | 318.490215690779 | 6.0503e-05 | deg |
M | 311.3621028893785 | 4.357e-05 | deg |
tp | 2459420.468023289080 (2021-Jul-24.96802329) | 0.00019832 | TDB |
period | 1628.123193812503 4.46 | 2.3547e-05 6.447e-08 | d yr |
n | .2211134890579159 | 3.1979e-09 | deg/d |
Q | 2.865501513063589 | 2.7628e-08 | au |
|
| | Orbit Determination Parameters
Additional Information
|